Terminal Aerodrome Forecast
Issued by NWS

Current Version | Previous Version | Text Only | Print | Product List | Glossary On
Versions: 1 2 3 4 5 6 7 8 9 10 11 12 13 14 15 16 17 18 19 20 21 22 23 24 25 26 27 28 29 30 31 32 33 34 35 36 37 38 39 40 41 42 43 44 45 46 47 48 49 50
000
FTAK31 PANC 241724
TAFASD
TAF
PASD 241724Z 2418/2518 18012KT P6SM VCSH FEW012 BKN035 BKN050
      TEMPO 2418/2422 SCT012 BKN030 BKN050
     FM250600 20007KT P6SM -SHRA BKN030 OVC050
      AMD LTD TO CLD VIS AND WIND=

USA.gov is the U.S. government's official web portal to all federal, state and local government web resources and services.